Overview Statistics Trail Chart Weather Telemetry Raw packets
 

This is the latest recevied weather packets stored in our database for station/object 4S6DRJ-13. If no packets are shown the sender has not sent any weather packets the latest 10 day(s).

<< 118 119 120 121 122 123 124 >>
Time Temp. Humidity Pressure Rain* Wind** Luminosity Snow
1788280105 28.33° C 82% 1011.5 hPa 0 mm 1.34 m/s, 252° 0 W/m² -
1788280043 28.33° C 82% 1011.4 hPa 0 mm 0.89 m/s, 236° 0 W/m² -
1788279982 28.33° C 82% 1011.4 hPa 0 mm 0.89 m/s, 229° 0 W/m² -
1788279921 28.33° C 82% 1011.4 hPa 0 mm 1.34 m/s, 241° 0 W/m² -
1788279860 28.33° C 82% 1011.5 hPa 0 mm 0 m/s 0 W/m² -
1788279799 28.33° C 82% 1011.4 hPa 0 mm 0.89 m/s, 176° 0 W/m² -
1788279751 28.33° C 82% 1011.5 hPa 0 mm 0.45 m/s, 237° 0 W/m² -
1788279677 28.33° C 82% 1011.4 hPa 0 mm 1.34 m/s, 288° 0 W/m² -
1788279616 28.33° C 82% 1011.4 hPa 0 mm 0 m/s 0 W/m² -
1788279555 28.33° C 82% 1011.5 hPa 0 mm 0.45 m/s, 224° 0 W/m² -
1788279494 28.33° C 82% 1011.4 hPa 0 mm 0.45 m/s, 171° 0 W/m² -
1788279433 28.33° C 82% 1011.3 hPa 0 mm 1.34 m/s, 212° 0 W/m² -
1788279372 28.33° C 82% 1011.2 hPa 0 mm 0.45 m/s, 255° 0 W/m² -
1788279311 28.33° C 82% 1011.2 hPa 0 mm 1.34 m/s, 240° 0 W/m² -
1788279250 28.33° C 82% 1011.2 hPa 0 mm 0.89 m/s, 204° 0 W/m² -
1788279189 28.33° C 83% 1011.2 hPa 0 mm 1.34 m/s, 299° 0 W/m² -
1788279128 28.33° C 83% 1011.3 hPa 0 mm 0.45 m/s, 281° 0 W/m² -
1788279067 28.33° C 83% 1011 hPa 0 mm 1.79 m/s, 293° 0 W/m² -
1788279006 28.33° C 83% 1011.2 hPa 0 mm 0.89 m/s, 205° 0 W/m² -
1788278945 28.33° C 83% 1011.4 hPa 0 mm 1.34 m/s, 183° 0 W/m² -
1788278884 28.33° C 83% 1011.1 hPa 0 mm 1.34 m/s, 300° 0 W/m² -
1788278827 28.33° C 83% 1011.2 hPa 0 mm 1.34 m/s, 241° 0 W/m² -
1788278762 28.33° C 83% 1011.1 hPa 0 mm 0.89 m/s, 226° 0 W/m² -
1788278701 28.33° C 83% 1011.3 hPa 0 mm 1.34 m/s, 191° 0 W/m² -
1788278640 28.33° C 83% 1011.4 hPa 0 mm 0.45 m/s, 239° 0 W/m² -

* Rain latest hour (hover to see other rain measurements)
** Current wind speed in m/s (hover to see current wind gust speed)